Regional Weather Roundup
Issued by NWS

Home | Current Version | Previous Version | Text Only | Print | Product List | Glossary On
Versions: 1 2 3 4 5 6 7 8 9 10 11 12 13 14 15 16 17 18 19 20 21 22 23 24 25 26 27 28 29 30 31 32 33 34 35 36 37 38 39 40 41 42 43 44 45 46 47 48 49 50
000
ASUS42 KTBW 070717
RWRFL
FLORIDA REGIONAL WEATHER ROUNDUP
NATIONAL WEATHER SERVICE TAMPA BAY RUSKIN FL
300 AM EDT TUE JUL 07 2015

NOTE: "FAIR" INDICATES FEW OR NO CLOUDS BELOW 12,000 FEET WITH NO
SIGNIFICANT WEATHER AND/OR OBSTRUCTIONS TO VISIBILITY.


FLZ001>010-012>015-112-114-115-070800-
PANHANDLE FLORIDA

CITY           SKY/WX    TMP DP  RH WIND       PRES   REMARKS
PENSACOLA      CLEAR     75  69  81 CALM      30.12R
PENSACOLA NAS  CLEAR     72  69  90 CALM      30.12R
MILTON NAS     CLEAR     72  69  90 NW6       30.13
CRESTVIEW      CLEAR     72  71  97 CALM      30.13S
DUKE FIELD     FAIR      72  70  92 CALM      30.11S
MARY ESTHER    CLEAR     76  69  80 N1        30.10S
TRI COUNTY     FAIR      73  72  96 CALM      30.13R
PANAMA CITY    FAIR      74  72  93 CALM      30.11R
TYNDALL AFB    CLEAR     74  73  97 CALM      30.11S
APALACHICOLA   CLEAR     77  72  84 CALM      30.11S

STATION/POSITION SKY/WX   TEMP    WIND        PRES    WAVE   SWELL
                          AIR SEA DIR/SP/G            HT/PER HT/PER
                          (F)     (DEG/KT/KT) (MB)    (FT/S) (FT/S)
30.1N   87.6W              84 85  200/  8/ 10 1019.2R   1/ 5   2/ 5
29.2N   88.2W              84 86  170/ 10/ 12 1020.1R   2/ 5   2/ 5
28.8N   86.0W              82 84  190/  4/  6 1020.2R   2/ 6   2/ 6
PANAMA CITY BEAC           81 82  240/  2/  3 1019.5S
CAPE SAN BLAS    NOT AVBL
TOWER C                    81     280/  6/  6 1019.7R
28.5N   84.5W              83 85   CALM  /  2 1019.5S   2/10   2/10

$$
FLZ011-016>038-118-127-128-134-139-239-070800-
NORTH FLORIDA

CITY           SKY/WX    TMP DP  RH WIND       PRES   REMARKS
MARIANNA       CLEAR     75  74  96 CALM      30.11R
TALLAHASSEE    CLEAR     75  72  90 CALM      30.11S
PERRY          CLEAR     73  73 100 CALM      30.12R
CROSS CITY       N/A     74  71  91 CALM      30.10F
LAKE CITY      FAIR      70  70 100 CALM      30.12S
GAINESVILLE    CLEAR     71  69  93 CALM      30.11S
MAYPORT NAS    PTCLDY    74  71  91 SW5       30.11S
JACKSONVILLE   MOCLDY    72  70  93 CALM      30.11R
JAX NAS        CLEAR     77  71  82 SW3       30.12R
JAX CRAIG      PTCLDY    74  70  87 CALM      30.11S
JAX CECIL      PTCLDY    68  68 100 CALM      30.12R
FERNANDINA BEA FAIR      77  72  83 W6        30.10R
ST AUGUSTINE   PTCLDY    71  70  96 CALM      30.12R

STATION/POSITION SKY/WX   TEMP    WIND        PRES    WAVE   SWELL
                          AIR SEA DIR/SP/G            HT/PER HT/PER
                          (F)     (DEG/KT/KT) (MB)    (FT/S) (FT/S)
SHELL POINT                81     270/  4/  5   N/A
KEATON BEACH               75      70/  3/  3 1019.7R
CEDAR KEY                  83     200/  3/  4 1019.7R
FERNANDINA                 76 79  210/  7/  9 1018.8F
30.7N   81.3W                 78                N/A     2/ 9
MAYPORT                    75 77  260/  4/  6 1019.7F
31.4N   80.9W              78 78  230/  8/ 10 1019.5    2/ 9   2/ 9
ST AUGUSTINE               72 71  240/  6/  7 1020.6R

$$
FLZ040-043>046-052-053-057-058-063-144-070800-
INTERIOR CENTRAL FLORIDA

CITY           SKY/WX    TMP DP  RH WIND       PRES   REMARKS
OCALA          CLEAR     72  68  88 CALM      30.12S
THE VILLAGES     N/A    N/A N/A N/A CALM      30.03R
LEESBURG       CLEAR     74  71  91 SW3       30.12S
SANFORD        CLEAR     73  69  87 CALM      30.11S
ORLANDO EXEC   CLEAR     74  72  93 CALM      30.12S
ORLANDO INTL   PTCLDY    73  72  96 S3        30.12S
WINTER HAVEN   CLEAR     76  70  82 S3        30.13S
LAKELAND       PTCLDY    72  70  94 MISG      30.12S
OKEECHOBEE     CLEAR     70  68  94 CALM      30.12S

$$
FLZ041-047-054-059-064-141-147-070800-
EAST CENTRAL FLORIDA

CITY           SKY/WX    TMP DP  RH WIND       PRES   REMARKS
DAYTONA BEACH  MOCLDY    70  69  97 CALM      30.12S
DELAND           N/A     70  68  94 CALM      30.13R
JFK SPACE CTR  CLEAR     69  68  94 CALM      30.10S FOG
CAPE CANAVERAL CLEAR     70  70 100 S2        30.10R
PATRICK AFB    CLEAR     75  70  83 SE5       30.10F
MELBOURNE      CLEAR     70  69  97 SW5       30.11S
VERO BEACH     CLEAR     72  68  87 CALM      30.12S
FT PIERCE      CLEAR     70  69  97 CALM      30.11F
STUART         PTCLDY    73  70  88 CALM      30.12S

STATION/POSITION SKY/WX   TEMP    WIND        PRES    WAVE   SWELL
                          AIR SEA DIR/SP/G            HT/PER HT/PER
                          (F)     (DEG/KT/KT) (MB)    (FT/S) (FT/S)
28.5N   80.2W              80 84   CALM  /  2 1019.8F
28.9N   78.5W              83 83  140/ 10/ 12 1019.7F
TRIDENT PIER               73 77  330/  1/  1 1019.9F
28.4N   80.5W                 79                N/A     1/ 9
27.5N   80.2W                 81                N/A     1/ 8

$$
FLZ050-056-061-142-242-148-248-149-249-151-251-155-255-
160-260-070800-
WEST CENTRAL FLORIDA

CITY           SKY/WX    TMP DP  RH WIND       PRES   REMARKS
CRYSTAL RIVER  FAIR      72  68  88 CALM      30.11S
INVERNESS      FAIR     N/A N/A N/A CALM      30.12S
BROOKSVILLE    CLEAR     72  69  90 CALM      30.12S
ZEPHYRHILLS    FAIR      68  68 100 CALM      30.13R
CLEARWATER     PTCLDY    76  72  87 SE3       30.10S
TAMPA INTL     PTCLDY    78  70  76 CALM      30.11S
TAMPA EXEC     CLEAR    N/A N/A N/A CALM      30.12S
PLANT CITY     CLEAR     75  73  94 CALM      30.14R
MACDILL AFB    PTCLDY    76  74  93 SE1       30.11R
PETER O KNIGHT CLEAR     79  73  83 CALM      30.11S
ST PETERSBURG  PTCLDY    80  71  74 S7        30.09S
SARASOTA       CLEAR     74  70  87 E5        30.09S
VENICE         FAIR      75  72  88 CALM      30.11S

STATION/POSITION SKY/WX   TEMP    WIND        PRES    WAVE   SWELL
                          AIR SEA DIR/SP/G            HT/PER HT/PER
                          (F)     (DEG/KT/KT) (MB)    (FT/S) (FT/S)
CEDAR KEY                  83     200/  3/  4 1019.7R
28.5N   84.5W              83 85   CALM  /  2 1019.5S   2/10   2/10
27.3N   84.2W                 87                N/A     1/ 5
CLEARWATER BEACH NOT AVBL
MIDDLE TAMPA BAY                  160/ 11/ 12 1019.6F
VENICE                     77 89  110/  4/  4 1019.1F

$$
FLZ066-069-070-075>078-162-262-165-265-070800-
SOUTHWEST FLORIDA AND KEYS

CITY           SKY/WX    TMP DP  RH WIND       PRES   REMARKS
PUNTA GORDA    CLEAR     74  72  93 SE6       30.12S
FT MYERS       CLEAR     75  73  93 E3        30.09F
SOUTHWEST INTL CLEAR     74  71  91 CALM      30.10F
MARCO ISLAND   SUNNY     73  68  83 E5        30.09F
MARATHON       PTCLDY    84  76  76 E7        30.08F
KEY WEST NAS   PTCLDY    84  74  71 E12       30.08F
KEY WEST INTL  PTCLDY    84  76  76 E15       30.08F

STATION/POSITION SKY/WX   TEMP    WIND        PRES    WAVE   SWELL
                          AIR SEA DIR/SP/G            HT/PER HT/PER
                          (F)     (DEG/KT/KT) (MB)    (FT/S) (FT/S)
VENICE                     77 89  110/  4/  4 1019.1F
NAPLES                        88              1020.3F
26.0N   85.6W              84 85   90/ 10/ 10 1018.5F   3/ 9   3/ 9
DRY TORTUGAS               85     110/ 13/ 16 1018.5F
NW FL BAY                  81      60/  8/  9 1019.4
SAND KEY                   84     100/ 14/ 16 1018.4F
SOMBRERO KEY               83     110/ 11/ 12 1019.3F
LONG KEY                   84 87  100/ 10/ 11 1019.5F
MOLASSES REEF              83 85   80/ 11/ 12 1018.9F

$$
FLZ067-068-071>074-168-172>174-070800-
SOUTHEAST FLORIDA

CITY           SKY/WX    TMP DP  RH WIND       PRES   REMARKS
W PALM BEACH   PTCLDY    82  75  79 SE5       30.11F
FT LAUDER-EXEC CLEAR     83  75  77 SE8       30.09F
FT LAUDERDALE  PTCLDY    83  76  79 SE8       30.09S
POMPANO BEACH  PTCLDY    83  74  74 E8        30.09F
PEMBROKE PINES PTCLDY    83  74  74 E8        30.10F
OPA LOCKA      MOCLDY    83  75  77 NE3       30.10S
MIAMI          PTCLDY    83  73  72 E8        30.09S
WEST KENDALL   PTCLDY    76  74  93 NW3       30.09F
HOMESTEAD      CLEAR     81  75  81 E2        30.08F

STATION/POSITION SKY/WX   TEMP    WIND        PRES    WAVE   SWELL
                          AIR SEA DIR/SP/G            HT/PER HT/PER
                          (F)     (DEG/KT/KT) (MB)    (FT/S) (FT/S)
PORT EVERGLADES            84      90/  6/ 10 1019.0F
VIRGINIA KEY               84 87  110/ 11/ 12 1018.7F
LAKE WORTH                 83 86  110/  9/ 11 1019.3S
SETTLEMENT POINT           81     140/  7/  8 1019.7S

$$




USA.gov is the U.S. government's official web portal to all federal, state and local government web resources and services.